Temperature
32 31 31 31 32 32 32 32 32 33 34 33 33 32 32 32 32 31 30 29 28 27 26 25 25 24 23 22 21 21 21 20 20 20 20 20 20 20 20 20 20 19 19 19
32 31 32 33 33 32 32 32 32 33 34 33 33 33 33 33 32 32 31 30 29 28 27 26 25 24 23 22 22 21 21 21 21 20 20 20 20 20 20 20 20 19 19 19
31 33 34 33 33 32 32 32 33 33 33 34 33 32 32 32 32 32 31 30 29 28 27 26 25 24 23 22 22 21 21 21 21 21 20 20 20 20 20 20 20 20 19 19
32 34 34 33 32 32 32 33 33 33 32 31 32 29 30 31 32 32 32 31 30 29 28 27 26 25 24 23 22 22 21 21 21 21 20 20 20 20 20 20 20 20 20 19
32 33 33 33 33 34 33 34 34 33 32 31 31 30 30 30 31 32 32 32 31 30 28 27 26 25 24 24 23 22 22 21 21 21 21 20 20 20 20 20 20 20 20 19
33 34 34 34 35 35 34 34 33 32 31 29 30 30 29 30 31 32 32 32 31 30 29 28 27 25 25 24 23 22 22 21 21 21 21 21 20 20 20 20 20 20 20 19
32 33 34 35 34 34 33 32 30 29 29 29 31 31 30 32 33 33 32 31 31 30 29 28 27 25 25 24 23 22 22 21 21 21 21 21 21 20 20 20 20 20 20 20
31 32 34 34 34 33 32 32 30 29 29 30 31 30 32 33 33 33 32 31 31 30 29 28 27 26 25 24 24 23 22 21 21 21 21 21 20 20 20 20 20 20 20 20
31 32 34 35 35 34 32 32 33 31 30 30 30 30 32 33 33 33 32 31 31 30 29 28 27 26 25 25 24 23 22 21 21 21 21 20 20 20 20 20 20 20 20 20
31 31 33 34 34 34 34 34 32 31 29 29 29 29 30 31 32 32 31 31 30 30 29 28 27 27 26 25 24 23 22 22 21 21 21 20 20 20 20 20 20 20 20 20
32 31 32 33 32 33 33 33 32 31 31 30 28 29 32 31 31 31 31 30 30 29 29 28 28 27 26 25 24 23 22 22 21 21 21 20 20 20 20 20 20 20 19 19
31 31 30 32 34 34 34 33 33 31 30 31 30 29 32 32 31 31 30 30 29 29 29 28 27 26 26 25 24 23 23 22 21 21 21 20 20 20 20 20 20 19 19 19
30 29 29 30 31 33 33 33 33 33 32 31 30 30 31 31 31 31 30 29 28 28 28 27 27 26 25 25 24 23 23 22 21 21 20 20 20 20 19 19 19 19 19 19
29 29 29 29 30 31 31 32 33 32 31 31 31 30 30 30 29 29 29 28 28 27 27 26 26 25 25 24 24 23 23 22 21 21 20 20 20 20 20 19 19 19 19 19
29 28 29 29 30 31 31 31 32 31 32 31 31 30 30 29 29 28 28 28 27 26 26 25 25 24 24 24 23 23 22 22 22 21 20 20 20 20 19 19 19 19 19 19
28 27 28 28 30 30 30 31 31 31 32 31 31 30 30 29 28 27 27 27 26 26 25 25 24 24 23 23 22 22 22 22 21 21 20 20 20 19 19 19 19 19 19 18
28 27 26 27 29 29 29 30 30 30 31 31 30 30 29 28 28 26 26 26 26 25 24 24 24 23 23 23 22 22 22 21 21 21 20 20 20 19 19 19 19 19 19 18
26 26 26 26 27 26 28 30 30 30 30 30 30 29 29 27 27 26 25 25 25 24 24 23 23 23 23 22 22 21 21 21 20 20 20 20 19 19 19 18 18 18 18 18
27 25 25 26 26 27 28 29 29 29 28 29 28 28 28 27 26 25 24 24 24 23 23 22 22 22 22 22 21 21 20 20 20 20 19 19 19 18 18 18 18 18 18 18
27 26 25 25 25 25 27 28 29 29 27 27 27 27 27 26 26 25 24 23 23 22 22 22 22 21 21 21 20 20 20 20 19 19 19 19 18 18 18 18 18 18 18 18
25 25 24 24 24 25 26 27 28 26 25 25 25 25 25 24 24 23 22 22 22 22 21 21 21 21 20 20 20 20 19 19 19 19 18 18 18 18 18 18 18 18 17 17
24 24 24 24 24 24 26 26 25 24 24 24 24 23 23 23 23 22 22 21 21 21 21 20 20 20 20 19 19 19 19 18 18 18 18 18 17 17 17 17 17 17 17 17
24 24 24 24 23 24 24 24 23 23 23 23 23 22 22 22 22 22 21 21 21 20 20 20 20 19 19 19 19 18 18 18 18 17 17 17 17 17 17 17 17 17 17 16
24 24 23 23 23 23 23 23 22 22 22 22 22 21 21 21 21 21 20 20 20 20 19 19 19 18 18 18 18 18 18 17 17 17 17 17 17 17 17 17 16 16 16 16
22 23 22 21 22 22 22 22 21 21 21 21 21 21 21 20 20 20 20 19 19 19 19 18 18 18 17 17 17 17 17 17 17 17 16 16 16 16 16 16 16 16 16 16
22 21 21 21 21 21 20 20 20 20 20 20 20 20 20 20 19 19 19 18 18 18 18 18 17 17 17 17 16 16 16 16 16 16 16 16 16 16 16 16 16 15 15 15
Wind_Speed
12 11 10 10 11 11 10 7 4 2 3 3 4 6 9 10 10 11 12 12 12 12 12 12 12 12 11 9 8 7 6 6 4 3 3 3 3 2 3 3 5 4 3 3
13 14 14 10 8 9 10 7 5 4 5 5 5 5 7 10 10 11 12 12 12 13 13 12 12 11 11 10 9 8 7 7 6 4 3 3 3 2 3 2 4 4 3 3
16 11 9 9 8 10 10 8 7 4 6 6 5 5 6 7 9 10 11 12 13 14 14 14 12 11 11 11 10 9 7 7 7 5 3 3 3 1 2 3 3 3 3 3
14 12 10 9 10 10 9 8 8 6 6 6 7 4 6 7 9 11 12 12 13 14 14 15 14 12 12 12 12 9 8 7 6 5 4 4 4 3 2 3 3 3 3 3
13 13 13 12 11 10 8 7 7 8 8 8 7 4 4 6 8 9 10 11 11 11 13 14 14 12 12 12 12 10 9 8 7 6 5 4 3 3 2 2 4 3 3 3
16 14 13 12 11 10 8 8 7 8 7 9 9 6 5 7 8 8 9 9 10 11 11 12 13 12 11 11 11 11 10 8 7 6 5 4 4 3 2 2 3 3 2 2
16 16 13 12 11 9 8 9 6 6 6 7 8 6 5 7 8 8 7 8 10 11 11 11 11 12 11 11 11 11 11 9 8 7 6 5 4 3 3 3 3 3 2 3
13 12 13 12 12 10 10 12 9 6 6 4 5 4 4 6 6 7 8 9 9 9 10 12 12 11 11 11 10 11 11 10 9 8 6 5 4 3 2 2 2 2 1 2
10 10 10 11 11 12 12 12 12 10 10 8 4 3 4 6 7 8 8 9 10 9 10 11 11 12 12 12 10 11 11 10 9 8 6 5 4 3 3 2 2 1 1 2
11 10 10 10 11 13 14 12 8 8 7 7 6 5 4 8 7 6 6 7 8 8 9 10 10 10 10 10 10 10 11 10 8 7 7 6 5 4 3 2 2 2 1 1
10 11 11 10 12 12 11 13 10 8 9 8 7 3 2 6 6 5 6 6 7 7 6 8 9 8 9 10 10 10 10 10 9 8 6 5 6 5 4 3 3 2 2 2
7 9 10 12 11 10 11 12 12 9 9 9 8 4 2 4 6 7 6 6 6 5 6 6 8 7 7 8 9 9 9 9 8 8 7 6 6 5 5 4 4 4 3 3
5 7 9 11 9 9 11 12 13 13 10 9 10 5 5 4 3 7 7 7 6 5 5 6 6 6 5 6 6 7 8 8 8 7 7 6 6 6 5 5 4 4 4 4
5 8 11 11 8 8 10 12 12 12 11 11 10 6 6 5 5 5 6 6 5 6 5 5 6 5 5 5 5 6 6 6 6 6 6 6 5 5 5 4 4 4 4 4
6 10 12 13 14 14 12 12 12 13 13 13 8 5 4 5 5 4 6 7 6 6 4 4 6 5 5 5 4 5 5 5 5 5 5 5 5 4 4 5 4 4 4 5
6 9 11 14 15 15 16 14 13 13 12 12 9 4 3 4 6 3 4 7 6 5 4 4 5 5 4 5 4 4 4 4 5 5 5 5 5 4 4 4 4 4 4 4
8 8 10 13 13 14 16 12 11 10 8 9 10 4 3 3 5 5 3 4 5 4 4 3 3 3 3 4 4 4 3 3 4 4 4 4 4 4 4 4 4 4 4 3
7 7 7 11 12 15 9 7 9 9 8 7 4 1 1 3 4 4 4 3 3 4 3 3 2 2 3 4 4 4 4 3 4 4 4 4 4 4 4 4 4 4 3 4
8 7 9 10 14 13 9 7 7 8 8 6 3 2 1 2 2 4 5 3 3 3 3 2 1 0 1 2 2 3 2 3 3 4 4 3 4 4 4 4 3 3 3 4
10 9 10 11 13 12 5 5 7 7 7 4 4 3 3 1 3 2 4 2 2 3 2 1 1 1 1 1 1 1 1 1 2 2 2 2 2 3 4 4 3 3 3 4
10 11 13 14 14 9 5 5 7 8 3 5 5 5 4 4 3 2 2 1 2 1 1 1 1 1 1 1 1 1 1 1 1 1 2 2 3 3 3 3 3 3 4 4
9 9 11 11 13 8 5 4 3 3 4 5 5 5 5 5 4 2 2 2 1 1 0 0 0 1 1 1 2 1 1 1 1 2 3 3 3 4 4 3 4 4 5 5
8 6 6 5 4 3 5 4 4 3 4 4 4 4 4 5 4 3 2 2 2 1 1 1 0 0 1 1 2 2 1 1 2 2 3 3 3 4 4 4 5 5 4 4
5 5 6 6 4 4 5 4 4 5 5 5 4 4 5 5 5 4 2 2 2 1 1 1 0 1 1 0 0 1 1 1 2 3 3 3 4 4 3 3 3 3 3 3
8 6 6 6 5 5 5 6 6 6 6 6 6 5 5 5 4 4 3 2 2 2 1 1 1 1 1 1 1 1 1 1 3 3 3 4 4 4 2 2 0 1 1 2
8 7 8 7 5 6 6 6 6 6 7 7 7 7 6 5 5 4 4 4 3 2 1 1 1 2 2 2 2 1 1 2 3 3 3 3 3 2 2 2 1 5 2 1
Wind_Direction
228 233 238 233 227 249 266 264 257 262 212 228 199 176 173 178 175 169 170 170 172 171 163 162 162 158 156 150 149 153 160 151 158 159 162 158 157 172 158 155 143 148 159 143
233 230 239 242 236 249 265 273 254 234 238 233 224 198 187 184 188 177 174 175 173 168 164 166 168 163 160 155 154 157 164 162 170 171 175 171 158 169 162 139 135 152 160 164
238 239 232 239 240 244 254 259 263 250 248 249 235 226 215 195 189 184 180 177 177 174 170 168 170 168 165 161 162 170 170 164 176 172 173 176 151 173 153 145 154 166 163 165
246 252 250 238 239 240 248 248 260 269 267 260 254 238 218 211 194 192 185 177 181 174 172 173 175 175 173 169 168 166 164 162 167 172 182 181 170 181 179 163 156 160 171 173
248 245 248 246 240 242 249 254 263 270 269 267 249 245 215 214 207 198 187 177 175 168 169 174 174 174 175 172 169 165 162 162 165 177 189 196 192 184 169 153 147 164 177 181
255 252 248 248 248 244 247 258 264 270 270 259 254 248 214 199 200 194 182 172 168 166 166 172 169 166 171 168 165 165 159 161 165 175 188 194 209 193 178 170 162 174 173 182
249 246 242 241 245 238 238 251 251 252 246 243 237 240 192 181 175 175 172 169 167 167 166 161 161 165 170 170 168 162 158 164 170 176 185 185 205 198 183 193 182 186 180 176
242 239 234 233 234 239 235 242 247 253 263 263 231 232 176 148 136 142 153 158 158 159 157 156 159 165 173 171 167 161 160 165 172 176 182 179 191 201 191 200 197 193 194 160
255 248 233 231 234 237 239 241 250 257 264 274 254 208 157 138 138 136 143 148 153 159 157 157 162 169 174 172 167 162 158 163 169 173 172 170 171 181 190 177 208 207 171 162
263 276 256 241 232 233 245 256 254 260 259 265 267 254 209 160 158 142 137 137 143 153 163 159 160 167 166 166 161 156 155 161 165 168 177 178 178 185 194 180 183 203 182 162
258 265 264 253 240 241 233 245 255 263 267 263 263 257 195 146 143 146 154 151 139 140 146 152 152 157 159 160 161 158 155 160 168 173 175 173 178 186 191 197 187 194 190 179
263 266 269 260 256 248 249 252 251 252 258 268 266 244 193 140 154 152 141 130 115 120 129 135 139 138 147 153 157 158 161 167 171 171 170 176 177 184 191 196 197 194 194 198
292 269 261 253 245 249 250 249 254 257 258 258 264 221 151 133 130 122 113 112 112 104 105 113 114 126 129 138 146 157 163 168 170 168 173 177 183 188 192 195 197 195 197 206
282 264 265 264 265 276 262 255 256 260 260 257 255 216 177 144 110 110 117 112 113 102 97 107 110 110 118 122 131 145 157 165 167 168 178 178 187 192 193 197 197 199 205 215
267 262 267 271 276 278 272 266 265 264 267 270 263 227 189 132 126 141 134 121 110 98 86 87 103 111 117 119 123 136 148 152 161 164 177 181 186 190 194 198 201 199 201 214
265 278 276 269 265 269 270 266 263 263 267 265 263 232 181 131 116 113 117 120 122 118 113 97 97 112 121 124 133 135 149 151 153 166 180 179 183 194 200 200 194 196 198 211
252 261 272 270 272 273 264 264 270 273 274 272 269 248 169 136 115 115 96 104 122 124 112 99 106 126 136 144 141 150 148 154 162 172 180 182 182 194 199 205 197 202 205 209
253 267 265 266 269 260 261 272 268 270 277 287 302 209 135 121 118 117 100 94 109 101 97 101 105 149 165 157 157 156 164 168 179 184 188 186 190 194 194 200 201 201 203 206
234 241 256 261 259 257 260 268 274 273 277 302 307 310 156 120 131 136 122 121 100 95 80 73 68 56 94 120 130 137 168 187 196 194 189 182 189 197 198 203 199 196 203 210
227 220 240 254 261 260 268 301 303 279 258 323 341 333 320 270 234 150 108 114 93 86 77 33 9 49 91 72 92 131 192 192 201 199 187 178 193 202 201 200 199 203 215 218
221 222 233 248 256 261 304 310 293 268 298 13 8 1 360 9 1 15 40 59 99 92 93 35 6 76 115 112 118 175 237 224 237 236 213 204 212 221 213 203 206 210 217 219
247 241 239 248 253 257 338 319 312 352 14 6 10 6 2 354 1 6 14 26 33 42 20 53 43 67 113 133 148 190 224 242 248 238 220 218 221 230 225 216 219 216 216 221
257 272 273 273 268 4 11 14 12 5 354 351 346 344 334 325 329 334 356 345 316 321 302 263 18 26 95 129 153 210 225 245 251 243 233 226 226 232 228 221 221 219 219 227
272 299 285 281 277 325 341 339 338 330 322 323 322 322 318 316 325 329 322 301 310 307 313 351 347 309 327 312 259 198 221 237 252 243 237 230 222 227 223 224 229 225 228 234
300 297 288 281 287 297 299 311 314 316 308 304 307 306 310 314 317 324 322 320 303 305 306 317 298 282 299 312 325 328 249 233 253 245 237 241 232 222 211 199 214 227 237 244
287 290 283 282 295 295 298 304 305 302 303 303 304 309 314 319 315 320 320 320 313 306 313 286 274 266 270 287 289 295 295 253 245 244 245 247 240 213 208 173 88 34 23 30
Height
1473 1475 1476 1473 1469 1469 1467 1469 1472 1466 1460 1463 1467 1469 1470 1472 1475 1478 1483 1487 1492 1495 1499 1503 1506 1508 1510 1512 1513 1514 1516 1517 1519 1520 1522 1523 1525 1526 1527 1528 1529 1529 1529 1530
1471 1472 1465 1462 1463 1465 1466 1470 1470 1465 1459 1462 1466 1467 1466 1468 1471 1474 1479 1483 1488 1492 1497 1501 1504 1506 1509 1510 1511 1513 1515 1516 1518 1520 1521 1523 1525 1526 1527 1528 1529 1529 1530 1530
1469 1462 1458 1460 1463 1467 1467 1469 1467 1466 1461 1458 1465 1472 1468 1466 1469 1472 1475 1479 1484 1489 1493 1497 1501 1504 1507 1509 1510 1512 1514 1515 1517 1519 1521 1523 1524 1526 1527 1528 1529 1529 1530 1530
1463 1457 1457 1461 1463 1464 1469 1459 1459 1462 1469 1474 1471 1489 1476 1469 1469 1469 1471 1475 1480 1484 1490 1494 1498 1501 1504 1507 1509 1511 1513 1514 1516 1518 1520 1522 1524 1525 1527 1528 1528 1529 1530 1530
1462 1456 1457 1461 1459 1457 1460 1455 1457 1462 1469 1475 1472 1483 1481 1469 1471 1468 1467 1471 1476 1481 1486 1491 1495 1498 1502 1505 1507 1509 1511 1513 1515 1517 1519 1521 1523 1525 1526 1527 1528 1528 1529 1529
1457 1452 1452 1453 1450 1450 1453 1456 1460 1463 1472 1490 1479 1482 1486 1469 1467 1465 1465 1469 1474 1478 1483 1488 1492 1496 1500 1503 1506 1508 1510 1512 1514 1516 1518 1520 1522 1523 1524 1526 1526 1527 1528 1529
1461 1453 1448 1448 1452 1451 1455 1468 1485 1493 1494 1491 1470 1473 1473 1458 1456 1460 1463 1467 1472 1476 1481 1486 1491 1494 1498 1502 1504 1506 1508 1510 1512 1514 1517 1518 1520 1521 1523 1524 1525 1526 1527 1528
1467 1464 1448 1445 1450 1455 1457 1464 1485 1500 1499 1484 1471 1475 1462 1451 1454 1458 1461 1465 1470 1475 1479 1484 1488 1493 1496 1499 1502 1505 1506 1509 1511 1513 1515 1517 1518 1520 1521 1523 1524 1525 1526 1527
1463 1460 1443 1442 1443 1447 1457 1458 1456 1471 1479 1486 1477 1468 1457 1450 1453 1457 1461 1465 1469 1474 1478 1482 1486 1490 1495 1497 1500 1502 1504 1507 1509 1512 1514 1515 1517 1518 1520 1522 1523 1524 1525 1526
1455 1462 1447 1441 1442 1443 1446 1448 1458 1470 1488 1496 1485 1479 1470 1460 1458 1458 1461 1464 1469 1473 1476 1480 1485 1489 1492 1495 1498 1501 1503 1505 1508 1510 1512 1514 1515 1517 1519 1520 1521 1523 1523 1524
1452 1461 1454 1446 1449 1450 1449 1452 1455 1463 1466 1485 1495 1485 1455 1455 1456 1459 1461 1465 1468 1471 1475 1479 1483 1487 1490 1494 1497 1499 1502 1504 1506 1508 1510 1513 1514 1516 1517 1519 1520 1521 1522 1522
1452 1457 1462 1452 1440 1438 1443 1447 1452 1468 1472 1467 1476 1480 1450 1453 1455 1458 1461 1464 1468 1471 1475 1478 1482 1485 1489 1492 1495 1498 1500 1503 1505 1507 1509 1511 1513 1514 1515 1517 1518 1519 1519 1520
1458 1463 1473 1466 1456 1446 1446 1444 1445 1448 1456 1465 1474 1475 1454 1456 1457 1459 1462 1466 1469 1472 1475 1478 1481 1484 1487 1490 1493 1496 1499 1502 1504 1506 1507 1509 1511 1512 1513 1514 1515 1516 1517 1518
1461 1464 1470 1475 1465 1454 1453 1449 1445 1450 1460 1464 1463 1464 1457 1456 1460 1463 1464 1467 1470 1474 1477 1479 1481 1484 1487 1489 1492 1495 1497 1500 1502 1504 1505 1507 1508 1510 1511 1512 1513 1514 1515 1515
1460 1466 1463 1459 1454 1451 1452 1451 1449 1451 1452 1457 1457 1458 1457 1459 1461 1465 1465 1468 1471 1475 1478 1480 1482 1485 1487 1489 1491 1494 1496 1498 1500 1501 1503 1504 1506 1507 1509 1510 1511 1511 1512 1513
1462 1467 1466 1464 1456 1453 1453 1448 1448 1448 1448 1449 1452 1457 1455 1458 1463 1467 1468 1469 1473 1475 1479 1481 1483 1485 1487 1489 1491 1493 1495 1496 1498 1499 1501 1502 1504 1505 1506 1507 1508 1509 1509 1510
1463 1469 1473 1471 1458 1457 1461 1451 1450 1450 1447 1450 1455 1455 1455 1460 1463 1468 1470 1471 1474 1476 1479 1481 1483 1485 1486 1488 1490 1492 1493 1495 1496 1497 1499 1500 1501 1502 1503 1504 1505 1505 1506 1507
1467 1471 1472 1471 1470 1480 1458 1445 1446 1449 1449 1448 1451 1454 1457 1461 1465 1468 1471 1473 1475 1478 1479 1481 1483 1485 1486 1488 1489 1490 1492 1493 1494 1495 1496 1498 1498 1499 1500 1501 1501 1502 1503 1503
1463 1470 1474 1474 1474 1467 1455 1449 1449 1452 1455 1452 1454 1456 1459 1462 1464 1469 1472 1473 1476 1478 1480 1481 1482 1484 1485 1486 1487 1489 1490 1491 1492 1493 1494 1494 1495 1496 1496 1497 1498 1498 1499 1500
1460 1465 1473 1473 1478 1476 1462 1452 1450 1452 1460 1457 1458 1460 1461 1462 1465 1470 1472 1473 1475 1477 1479 1480 1481 1482 1483 1484 1485 1486 1488 1488 1489 1489 1490 1491 1492 1493 1493 1494 1494 1495 1496 1496
1465 1467 1471 1472 1474 1467 1458 1454 1454 1466 1468 1462 1462 1464 1465 1466 1468 1471 1472 1473 1474 1476 1477 1478 1480 1480 1481 1482 1483 1484 1485 1485 1486 1487 1488 1488 1489 1490 1490 1491 1492 1492 1492 1493
1465 1466 1468 1469 1473 1474 1460 1458 1463 1467 1465 1465 1466 1467 1468 1468 1469 1470 1471 1471 1473 1474 1476 1477 1478 1479 1479 1480 1480 1481 1482 1483 1483 1484 1484 1485 1486 1487 1487 1487 1488 1489 1489 1489
1460 1462 1463 1466 1468 1465 1464 1464 1466 1467 1467 1468 1468 1468 1470 1470 1470 1470 1470 1472 1472 1473 1474 1475 1476 1477 1477 1478 1478 1479 1479 1480 1481 1481 1481 1482 1483 1483 1484 1484 1485 1486 1486 1486
1460 1461 1462 1464 1463 1465 1466 1467 1468 1469 1469 1469 1469 1469 1470 1469 1469 1469 1470 1470 1471 1472 1472 1473 1474 1475 1475 1476 1476 1476 1476 1477 1477 1477 1478 1478 1479 1479 1480 1481 1482 1482 1482 1482
1465 1465 1465 1467 1467 1467 1468 1469 1469 1469 1469 1469 1469 1469 1469 1469 1468 1469 1469 1469 1470 1470 1470 1471 1472 1472 1473 1473 1473 1473 1473 1474 1474 1474 1475 1475 1476 1476 1477 1477 1477 1478 1478 1479
1467 1467 1469 1468 1468 1469 1469 1468 1469 1469 1469 1469 1469 1468 1468 1468 1468 1468 1468 1468 1468 1468 1468 1469 1469 1470 1470 1470 1470 1470 1471 1471 1471 1471 1471 1472 1473 1473 1473 1473 1473 1474 1475 1475